This is the latest recevied weather packets stored in our database for station/object KB0RPJ. If no packets are shown the sender has not sent any weather packets the latest 10 day(s).
| Time | Temp. | Humidity | Pressure | Rain* | Wind** | Luminosity | Snow |
|---|---|---|---|---|---|---|---|
| 1777989305 | 10.56° C | 64% | 1011.7 hPa | 0 mm | - | 45 W/m² | - |
| 1777989005 | 11.11° C | 65% | 1011.6 hPa | 0 mm | - | 39 W/m² | - |
| 1777988705 | 11.11° C | 65% | 1011.3 hPa | 0 mm | - | 29 W/m² | - |
| 1777988406 | 11.11° C | 63% | 1010.9 hPa | 0 mm | - | 28 W/m² | - |
| 1777988116 | 11.11° C | 61% | 1010.7 hPa | 0 mm | - | 27 W/m² | - |
| 1777987805 | 11.11° C | 61% | 1010.4 hPa | 0 mm | - | 32 W/m² | - |
| 1777987505 | 10.56° C | 62% | 1010.3 hPa | 0 mm | - | 36 W/m² | - |
| 1777987205 | 10.56° C | 64% | 1010.1 hPa | 0 mm | - | 30 W/m² | - |
| 1777986918 | 10.56° C | 64% | 1010.1 hPa | 0 mm | - | 25 W/m² | - |
| 1777986606 | 10.56° C | 65% | 1010 hPa | 0 mm | - | 21 W/m² | - |
| 1777986305 | 10.56° C | 64% | 1009.8 hPa | 0 mm | - | 21 W/m² | - |
| 1777986006 | 10.56° C | 63% | 1009.5 hPa | 0 mm | - | 21 W/m² | - |
| 1777985706 | 10° C | 63% | 1009.2 hPa | 0 mm | - | 24 W/m² | - |
| 1777985409 | 10° C | 63% | 1009.1 hPa | 0 mm | - | 29 W/m² | - |
| 1777985105 | 10° C | 62% | 1009.1 hPa | 0 mm | - | 33 W/m² | - |
| 1777984805 | 10° C | 63% | 1009.3 hPa | 0 mm | - | 25 W/m² | - |
| 1777984504 | 10° C | 62% | 1009.2 hPa | 0 mm | - | 27 W/m² | - |
| 1777984205 | 10° C | 66% | 1009.1 hPa | 0 mm | - | 26 W/m² | - |
| 1777983905 | 10° C | 66% | 1008.6 hPa | 0 mm | - | 29 W/m² | - |
| 1777983605 | 10° C | 65% | 1008.7 hPa | 0 mm | - | 23 W/m² | - |
| 1777983305 | 10° C | 65% | 1008.7 hPa | 0 mm | - | 12 W/m² | - |
| 1777983005 | 10° C | 65% | 1008.9 hPa | 0 mm | - | 7 W/m² | - |
| 1777982705 | 10° C | 65% | 1009 hPa | 0 mm | - | 6 W/m² | - |
| 1777982405 | 10° C | 64% | 1009.2 hPa | 0 mm | - | 6 W/m² | - |
| 1777982104 | 10.56° C | 65% | 1009.1 hPa | 0 mm | - | 10 W/m² | - |
* Rain latest hour (hover to see other rain measurements)
** Current wind speed in m/s (hover to see current wind gust speed)